EW6934 Weather Reports


time (UTC)temp
F
wind
direction
speed
knots
gust
knots
rain 1hr
in
rain 24hr
in
rain mn
in
humidity
%
barometer
mb
20260901080104 69 0 0.0 0.9 0.00 0.00 0.00 93 1020.9
20260901074605 69 0 0.0 0.0 0.00 0.00 0.00 93 1020.9
20260901073107 70 0 0.0 0.9 0.00 0.00 0.00 93 1021.0
20260901071557 70 0 0.0 0.9 0.00 0.00 0.00 93 1021.3
20260901070109 70 0 0.0 0.0 0.00 0.00 0.00 93 1021.5
20260901064614 70 0 0.0 0.0 0.00 0.00 0.00 93 1021.6
20260901063059 70 0 0.0 1.7 0.00 0.00 0.00 93 1021.6
20260901061558 71 0 0.0 0.9 0.00 0.00 0.00 93 1021.7
20260901060057 71 279 0.0 1.7 0.00 0.00 0.00 93 1021.8
20260901054604 71 0 0.0 0.9 0.00 0.00 0.00 92 1021.7
20260901053103 71 0 0.0 1.7 0.00 0.00 0.00 92 1021.8
20260901051604 71 0 0.0 1.7 0.00 0.00 0.00 91 1021.9
20260901050105 71 0 0.0 0.0 0.00 0.00 0.00 90 1021.9
20260901044603 72 0 0.0 0.0 0.00 0.00 0.00 90 1021.8
20260901043058 72 0 0.0 0.9 0.00 0.00 0.00 89 1021.8
20260901041558 73 0 0.0 1.7 0.00 0.00 0.00 88 1021.8
20260901040105 73 0 0.0 0.9 0.00 0.00 0.00 88 1021.7
20260901034600 73 0 0.0 0.9 0.00 0.00 0.00 87 1021.7
20260901033102 73 0 0.0 0.0 0.00 0.00 0.00 86 1021.6
20260901031555 74 0 0.0 0.0 0.00 0.00 0.00 85 1021.7
20260901030100 74 0 0.0 0.9 0.00 0.00 0.00 85 1021.7
20260901024601 74 341 0.0 0.9 0.00 0.00 0.00 85 1021.8
20260901023058 74 0 0.0 0.9 0.00 0.00 0.00 84 1021.7
20260901021602 75 0 0.0 0.0 0.00 0.00 0.00 84 1021.7
20260901014601 75 0 0.0 0.0 0.00 0.00 0.00 83 1021.2
20260901013116 76 0 0.0 1.7 0.00 0.00 0.00 82 1021.0
20260901011608 76 0 0.0 1.7 0.00 0.00 0.00 81 1020.8
20260901010059 77 0 0.0 1.7 0.00 0.00 0.00 80 1020.7
20260901004607 77 0 0.0 1.7 0.00 0.00 0.00 79 1020.4
20260901003059 78 0 0.0 0.0 0.00 0.00 0.00 77 1020.4
20260901001559 78 0 0.0 1.7 0.00 0.00 0.00 77 1020.5
20260901000107 79 341 0.9 1.7 0.00 0.00 0.00 76 1020.7
20260831234633 80 355 0.9 2.6 0.00 0.00 0.00 73 1020.6
20260831233100 82 279 0.9 7.0 0.00 0.00 0.00 69 1020.6
20260831231604 85 275 3.5 8.7 0.00 0.00 0.00 64 1020.7
20260831230054 88 284 0.9 2.6 0.00 0.00 0.00 55 1020.6
20260831224601 88 321 0.9 2.6 0.00 0.00 0.00 55 1020.6
20260831223101 87 266 0.0 2.6 0.00 0.00 0.00 55 1020.5
20260831221556 87 69 0.9 3.5 0.00 0.00 0.00 57 1020.5
20260831220055 87 345 0.9 3.5 0.00 0.00 0.00 57 1020.7
20260831214611 87 336 1.7 3.5 0.00 0.00 0.00 58 1020.9
20260831213103 88 324 0.9 5.2 0.00 0.00 0.00 60 1021.1
20260831211553 88 309 1.7 4.3 0.00 0.00 0.00 59 1021.0
20260831210100 89 98 1.7 4.3 0.00 0.00 0.00 56 1020.9
20260831204603 89 55 0.0 2.6 0.00 0.00 0.00 54 1020.9
20260831203101 89 113 0.9 6.1 0.00 0.00 0.00 57 1021.1
20260831201610 88 0 0.9 6.1 0.00 0.00 0.00 57 1021.2
20260831200056 87 77 3.5 7.0 0.00 0.00 0.00 56 1021.3
20260831194601 88 0 0.9 5.2 0.00 0.00 0.00 58 1021.5
20260831193129 88 286 1.7 5.2 0.00 0.00 0.00 56 1021.6
20260831191555 88 256 1.7 4.3 0.00 0.00 0.00 59 1021.6
20260831190057 87 265 1.7 4.3 0.00 0.00 0.00 58 1022.0
20260831184605 87 13 1.7 6.1 0.00 0.00 0.00 58 1022.2
20260831183103 87 281 0.0 5.2 0.00 0.00 0.00 60 1022.3
20260831181609 86 214 2.6 7.0 0.00 0.00 0.00 57 1022.4
20260831174559 86 355 1.7 5.2 0.00 0.00 0.00 62 1022.7
20260831173100 85 10 0.9 5.2 0.00 0.00 0.00 63 1022.8
20260831171607 85 315 3.5 7.8 0.00 0.00 0.00 63 1022.8
20260831170106 84 216 0.9 5.2 0.00 0.00 0.00 65 1023.0
20260831164611 84 317 1.7 6.1 0.00 0.00 0.00 67 1023.0
20260831163059 84 0 0.9 3.5 0.00 0.00 0.00 69 1023.1
20260831161608 83 247 1.7 4.3 0.00 0.00 0.00 70 1023.1
20260831160110 82 126 2.6 4.3 0.00 0.00 0.00 72 1023.1
20260831154629 82 233 0.9 5.2 0.00 0.00 0.00 74 1023.3
20260831153058 81 201 0.9 5.2 0.00 0.00 0.00 74 1023.4
20260831151555 80 229 2.6 6.1 0.00 0.00 0.00 77 1023.5
20260831150107 79 229 0.9 3.5 0.00 0.00 0.00 80 1023.5
20260831144603 79 219 1.7 4.3 0.00 0.00 0.00 80 1023.6
20260831143055 79 238 1.7 6.1 0.00 0.00 0.00 81 1023.5
20260831141555 79 175 1.7 3.5 0.00 0.00 0.00 81 1023.3
20260831134606 78 28 0.9 2.6 0.00 0.00 0.00 82 1023.2
20260831133058 77 295 0.9 2.6 0.00 0.00 0.00 84 1023.2
20260831131602 76 351 0.9 2.6 0.00 0.00 0.00 86 1023.3
20260831130109 74 293 0.0 2.6 0.00 0.00 0.00 87 1023.2
20260831124600 73 0 0.0 1.7 0.00 0.00 0.00 89 1023.2
20260831123059 72 321 0.0 3.5 0.00 0.00 0.00 91 1023.1
20260831121609 71 305 0.0 3.5 0.00 0.00 0.00 93 1023.1
20260831120100 70 285 0.9 2.6 0.00 0.00 0.00 94 1022.9
20260831114559 69 0 0.0 0.9 0.00 0.00 0.00 95 1022.9
20260831113105 68 0 0.0 1.7 0.00 0.00 0.00 95 1022.9
20260831111605 68 0 0.0 0.0 0.00 0.00 0.00 95 1022.7
20260831110100 68 0 0.0 0.0 0.00 0.00 0.00 95 1022.5
20260831104601 68 0 0.0 0.9 0.00 0.00 0.00 95 1022.4
20260831103056 68 311 0.0 1.7 0.00 0.00 0.00 95 1022.4
20260831101606 68 0 0.0 0.9 0.00 0.00 0.00 94 1022.3
20260831100114 68 0 0.0 0.9 0.00 0.00 0.00 94 1022.4
20260831094558 68 0 0.0 0.9 0.00 0.00 0.00 94 1022.3
20260831093102 69 0 0.0 0.9 0.00 0.00 0.00 93 1022.3
20260831091605 69 290 0.0 1.7 0.00 0.00 0.00 94 1022.1
20260831090118 69 0 0.0 1.7 0.00 0.00 0.00 94 1022.1
20260831084600 69 0 0.0 1.7 0.00 0.00 0.00 94 1022.2
20260831083113 69 0 0.0 1.7 0.00 0.00 0.00 94 1022.0
20260831081603 69 0 0.0 0.9 0.00 0.00 0.00 94 1022.0